This is the latest recevied weather packets stored in our database for station/object K7SKM. If no packets are shown the sender has not sent any weather packets the latest 10 day(s).
| Time | Temp. | Humidity | Pressure | Rain* | Wind** | Luminosity | Snow |
|---|---|---|---|---|---|---|---|
| 1778007368 | 15.56° C | 68% | 1021.1 hPa | 0 mm | - | 89 W/m² | - |
| 1778007064 | 15.56° C | 69% | 1021.3 hPa | 0 mm | - | 87 W/m² | - |
| 1778006760 | 15.56° C | 69% | 1021.2 hPa | 0 mm | - | 85 W/m² | - |
| 1778006457 | 15.56° C | 70% | 1021.1 hPa | 0 mm | - | 84 W/m² | - |
| 1778006153 | 15° C | 70% | 1021.3 hPa | 0 mm | - | 84 W/m² | - |
| 1778005851 | 15.56° C | 69% | 1021.2 hPa | 0 mm | - | 83 W/m² | - |
| 1778005541 | 15.56° C | 69% | 1021.2 hPa | 0 mm | - | 81 W/m² | - |
| 1778005238 | 15° C | 69% | 1021.1 hPa | 0 mm | - | 79 W/m² | - |
| 1778004935 | 15° C | 70% | 1021.1 hPa | 0 mm | - | 78 W/m² | - |
| 1778004633 | 15° C | 70% | 1021.2 hPa | 0 mm | - | 75 W/m² | - |
| 1778004328 | 15° C | 70% | 1021.1 hPa | 0 mm | - | 72 W/m² | - |
| 1778004026 | 15° C | 70% | 1021.1 hPa | 0 mm | - | 70 W/m² | - |
| 1778003721 | 15° C | 71% | 1021.1 hPa | 0 mm | - | 65 W/m² | - |
| 1778003418 | 15° C | 71% | 1021.1 hPa | 0 mm | - | 66 W/m² | - |
| 1778003115 | 15° C | 70% | 1021.2 hPa | 0 mm | - | 66 W/m² | - |
| 1778002811 | 15° C | 71% | 1021 hPa | 0 mm | - | 70 W/m² | - |
| 1778002508 | 15° C | 71% | 1021 hPa | 0 mm | - | 66 W/m² | - |
| 1778002204 | 15° C | 71% | 1021 hPa | 0 mm | - | 60 W/m² | - |
| 1778001903 | 14.44° C | 71% | 1021 hPa | 0 mm | - | 55 W/m² | - |
| 1778001597 | 14.44° C | 72% | 1020.9 hPa | 0 mm | - | 54 W/m² | - |
| 1778001293 | 14.44° C | 71% | 1020.9 hPa | 0 mm | - | 53 W/m² | - |
| 1778000990 | 14.44° C | 71% | 1020.9 hPa | 0 mm | - | 52 W/m² | - |
| 1778000687 | 14.44° C | 71% | 1020.9 hPa | 0 mm | - | 52 W/m² | - |
| 1778000383 | 14.44° C | 71% | 1020.9 hPa | 0 mm | - | 51 W/m² | - |
| 1778000079 | 14.44° C | 71% | 1020.9 hPa | 0 mm | - | 49 W/m² | - |
* Rain latest hour (hover to see other rain measurements)
** Current wind speed in m/s (hover to see current wind gust speed)